Regional Weather Roundup
Issued by NWS

Home | Current Version | Previous Version | Text Only | Print | Product List | Glossary On
Versions: 1 2 3 4 5 6 7 8 9 10 11 12 13 14 15 16 17 18 19 20 21 22 23 24 25 26 27
000
ASUS45 KSLC 010210
RWRUT

UTAH REGIONAL WEATHER ROUNDUP
NATIONAL WEATHER SERVICE SALT LAKE CITY UT
800 PM MDT TUE MAY 31 2016

UTZ001>011-023>025-010300-

NORTHERN UTAH

CITY           SKY/WX    TMP DP  RH WIND       PRES   REMARKS
BRIGHAM CITY     N/A     74  31  20 W3        30.03R
HILL AFB       CLEAR     72  34  24 NW5       30.05S
LOGAN          PTCLDY    71  49  45 CALM      30.03S
OGDEN          CLEAR     71  38  29 W6        30.03S
PROVO AIRPORT  CLEAR     72  37  28 NW10      30.02R
SALT LAKE CITY PTCLDY    75  31  19 NW7       30.02S
VERNAL         CLEAR     72  33  24 N10       30.00R
WENDOVER       CLEAR     77  30  18 SE6       30.02S
HEBER CITY     CLEAR     68  27  21 N6G18     30.05R
WEST JORDAN    CLEAR     70  32  24 NW9       30.05S

$$

UTZ012>022-026-027-010300-

SOUTHERN/CENTRAL UTAH

CITY           SKY/WX    TMP DP  RH WIND       PRES   REMARKS
BLANDING       CLEAR     76  25  15 NW9       30.04R
BRYCE CANYON   CLEAR     66  19  16 NW16G23   30.13R
CEDAR CITY     CLEAR     73  24  16 N10       30.03R
DELTA          CLEAR     73  21  14 NW10      30.02R
HANKSVILLE     CLEAR     82  23  11 NW16      29.89S
MILFORD        CLEAR     77  17  10 N14       30.01R
MOAB/CYNLANDS  CLEAR     83  20   9 NW10      29.87S
PRICE          CLEAR     73  18  12 NW14G23   30.02R
ST GEORGE      CLEAR     91  30  11 N8        29.82R

$$

REGIONAL REPORTS     COLORADO/ARIZONA

CITY           SKY/WX    TMP DP  RH WIND       PRES   REMARKS
CRAIG, CO      CLEAR     65  36  34 N6        30.09R
GRAND JUNCTION CLEAR     76  29  17 NE10      29.92R
RIFLE          PTCLDY    73  27  18 N6        29.99R
MONTROSE       CLEAR     74  28  18 NW10      29.99R
CORTEZ         CLEAR     75  30  19 N8        29.97R
PAGE, AZ       CLEAR     86  20   9 CALM      29.84S
GRAND CANYON   PTCLDY    73  24  16 N7        30.06R
KINGMAN        CLEAR     89  23   9 N17       29.84R
FLAGSTAFF      MOCLDY    69  22  16 W3        30.08R

$$

REGIONAL REPORTS    NEVADA/IDAHO/WYOMING

CITY           SKY/WX    TMP DP  RH WIND       PRES   REMARKS
LAS VEGAS, NV  PTCLDY    96  30   9 E3        29.70R HX  90
ELY            CLEAR     71  28  20 N10       30.10R
ELKO           SUNNY     78  22  12 N9        30.06R
POCATELLO, ID  CLEAR     69  34  27 E5        30.07S
BURLEY         SUNNY     71  32  23 W3        30.04R
EVANSTON, WY   PTCLDY    60  35  39 N12       30.16R
ROCK SPRINGS   CLOUDY    62  33  33 E3        30.11R
KEMMERER         N/A     57  32  38 W10       30.17R

$$




USA.gov is the U.S. government's official web portal to all federal, state and local government web resources and services.